Flag for Nepal Weather past 2 weeks in Pokhara, Nepal

Now
70 °F

Passing clouds.


Feels Like: 70 °F
Forecast: 56 / 76 °F
Wind: 5 mph from East

Location: Kathmandu Airport

Current Time: Apr 27, 2015 at 11:36:50 AM

Latest Report: Apr 27, 2015 at 10:35 AM


Visibility: N/A

Pressure: 30.15 "Hg

Humidity: 64%

Dew point: 57 °F

Location of PokharaLocation

Historic Weather in Pokhara — Graph

°F

Pokhara temperature yesterday

Maximum temperature yesterday: 73 °F (at 4:35 PM)
Minimum temperature yesterday: 57 °F (at 10:35 PM)
Average temperature yesterday: 65 °F

Past Weeks' High & Low Weather Summary

 TemperatureHumidityPressure
High82 °F (Apr 21, 1:35 PM)100% (Apr 14, 1:35 AM)30.27 "Hg (Apr 14, 1:35 AM)
Low54 °F (Apr 23, 4:35 AM)21% (Apr 23, 1:35 PM)29.77 "Hg (Apr 18, 3:35 PM)
Average65 °F75%30.04 "Hg
* Reported Apr 12 9:35 AM — Apr 27 9:35 AM, Pokhara, Weather by CustomWeather, © 2015

Note: Actual official high and low records may vary slightly from our data, if they occured in-between our weather recording intervals... More about our weather records

Advertising

Pokhara weather history for previous 24 hours

 ConditionsComfort  
Time TempWeatherWind HumidityBarometerVisibility
9:35 AM
Mon, Apr 27
66 °FScattered clouds.5 mph68%30.15 "HgN/A
8:35 AM63 °FFog.N/A77%30.15 "HgN/A
7:35 AM57 °FBroken clouds.2 mph94%30.15 "Hg4 mi
6:35 AM55 °FBroken clouds.2 mph94%30.12 "Hg4 mi
3:35 AM55 °FPassing clouds.3 mph94%30.07 "Hg4 mi
2:35 AM55 °FPassing clouds.No wind100%30.07 "Hg4 mi
12:35 AM57 °FPassing clouds.2 mph94%30.07 "Hg4 mi
11:35 PM
Sun, Apr 26
57 °FPassing clouds.3 mph94%30.07 "Hg4 mi
10:35 PM57 °FRain. Partly cloudy.5 mph94%30.09 "Hg4 mi
9:35 PM59 °FRain. Partly cloudy.5 mph88%N/A3 mi
8:35 PM63 °FLight rain. Partly cloudy.6 mph73%30.09 "Hg4 mi
7:35 PM64 °FPartly cloudy.14 mph73%30.04 "Hg5 mi
6:35 PM66 °FBroken clouds.6 mph60%30.01 "Hg5 mi
4:35 PM73 °FBroken clouds.7 mph53%30.01 "HgN/A
3:35 PM72 °FBroken clouds.7 mph53%30.01 "HgN/A
2:35 PM72 °FBroken clouds.7 mph53%30.04 "Hg5 mi
12:35 PM72 °FBroken clouds.7 mph53%30.09 "Hg5 mi
Weather by CustomWeather, © 2015

See weather overviewHow to use our weather pages